Flag for United Kingdom Weather past 2 weeks in Glasgow, Scotland, United Kingdom

Now
36 °F

Chilly.


Feels Like: 27 °F
Forecast: N/A
Wind: 12 mph from Northwest

Location: Glasgow Airport

Current Time: Jan 31, 2015 at 8:03:05 PM

Latest Report: Jan 31, 2015 at 7:20 PM


Visibility: N/A

Pressure: 29.45 "Hg

Humidity: 75%

Dew point: 28 °F

Location of GlasgowLocation

Historic Weather in Glasgow — Graph

°F

Glasgow temperature yesterday

Maximum temperature yesterday: 41 °F (at 12:50 PM)
Minimum temperature yesterday: 27 °F (at 12:20 AM)
Average temperature yesterday: 36 °F

Past Weeks' High & Low Weather Summary

 TemperatureHumidityPressure
High48 °F (Jan 25, 2:50 PM)100% (Jan 16, 6:20 PM)30.27 "Hg (Jan 16, 6:20 PM)
Low19 °F (Jan 20, 2:50 AM)56% (Jan 18, 5:50 PM)28.74 "Hg (Jan 29, 1:20 PM)
Average36 °F88%29.72 "Hg
* Reported Jan 16 6:20 PM — Jan 31 6:50 PM, Glasgow, Weather by CustomWeather, © 2014

Note: Actual official high and low records may vary slightly from our data, if they occured in-between our weather recording intervals... More about our weather records

Advertising

Glasgow weather history for previous 24 hours

 ConditionsComfort  
Time TempWeatherWind HumidityBarometerVisibility
6:50 PM
Jan 31
36 °FChilly.10 mph75%29.45 "HgN/A
6:20 PM36 °FChilly.8 mph75%29.42 "HgN/A
5:50 PM36 °FChilly.10 mph70%29.42 "HgN/A
5:20 PM36 °FPassing clouds.8 mph70%29.42 "HgN/A
4:50 PM36 °FPassing clouds.5 mph70%29.42 "HgN/A
4:20 PM37 °FScattered clouds.7 mph65%29.39 "HgN/A
3:20 PM39 °FPassing clouds.9 mph65%29.36 "HgN/A
2:50 PM39 °FPassing clouds.15 mph61%29.36 "HgN/A
2:20 PM41 °FPassing clouds.16 mph57%29.33 "HgN/A
1:50 PM39 °FScattered clouds.14 mph65%29.33 "HgN/A
1:20 PM39 °FScattered clouds.12 mph70%29.33 "HgN/A
12:50 PM41 °FPassing clouds.15 mph61%29.30 "HgN/A
12:20 PM41 °FPassing clouds.16 mph66%29.30 "HgN/A
11:50 AM39 °FPassing clouds.18 mph70%29.27 "HgN/A
11:20 AM39 °FPassing clouds.17 mph70%29.27 "HgN/A
10:50 AM39 °FPassing clouds.18 mph75%29.24 "HgN/A
10:20 AM39 °FPassing clouds.18 mph70%29.24 "HgN/A
9:50 AM37 °FChilly.20 mph81%29.21 "HgN/A
9:20 AM37 °FChilly.18 mph75%29.21 "HgN/A
8:50 AM37 °FChilly.16 mph75%29.18 "HgN/A
8:20 AM37 °FChilly.14 mph75%29.15 "HgN/A
7:50 AM37 °FPassing clouds.13 mph75%29.15 "HgN/A
7:20 AM37 °FPassing clouds.10 mph75%29.15 "HgN/A
6:50 AM37 °FPassing clouds.10 mph75%29.12 "HgN/A
6:20 AM37 °FPassing clouds.12 mph70%29.09 "HgN/A
5:50 AM37 °FPassing clouds.8 mph70%29.09 "HgN/A
5:20 AM37 °FChilly.9 mph75%29.06 "HgN/A
4:50 AM37 °FChilly.15 mph81%29.03 "HgN/A
4:20 AM37 °FChilly.8 mph81%29.03 "HgN/A
3:50 AM39 °FPassing clouds.6 mph70%29.00 "HgN/A
3:20 AM39 °FPassing clouds.7 mph75%29.00 "HgN/A
2:50 AM37 °FPassing clouds.5 mph75%28.97 "HgN/A
2:20 AM39 °FPassing clouds.5 mph70%28.97 "HgN/A
1:50 AM37 °FPassing clouds.6 mph81%28.94 "HgN/A
1:20 AM37 °FChilly.7 mph81%28.94 "HgN/A
12:50 AM37 °FPassing clouds.5 mph81%28.91 "HgN/A
12:20 AM37 °FChilly.7 mph81%28.91 "HgN/A
11:50 PM
Jan 30
37 °FPassing clouds.10 mph87%28.88 "HgN/A
11:20 PM37 °FPassing clouds.7 mph87%28.88 "HgN/A
10:50 PM37 °FChilly.7 mph81%28.85 "HgN/A
10:20 PM37 °FChilly.9 mph81%28.85 "HgN/A
9:50 PM37 °FChilly.9 mph81%28.85 "HgN/A
9:20 PM37 °FChilly.8 mph81%28.85 "HgN/A
8:50 PM37 °FChilly.9 mph81%28.85 "HgN/A
8:20 PM37 °FChilly.7 mph81%28.82 "HgN/A
Weather by CustomWeather, © 2014

See weather overviewHow to use our weather pages